weather.gov     
National Weather Service

Terminal Aerodrome Forecast
NWS Homepage
This page is being discontinued on March 12, 2014.
The same data is available at this site. Please update your bookmarks.
Thank you, and we apologize for the inconvenience.
Please send an email to SR-SRH.Webmaster@noaa.gov with any concerns.


Current Version
Previous Version:    01  02  03  04  05  06  07  08  09  10  11  12  13  14  15  16  17  18  19  20  21  22  23  24  25  26  27  28  29  30  
   31  32  33  34  35  36  37  38  39  40  41  42  43  44  45  
[Printable]
641
FTUS43 KDTX 211100 CCA
TAFYIP
TAF COR
KYIP 211143Z 2112/2212 28010G20KT P6SM SCT008 BKN100
     FM211500 32012KT P6SM BKN025
      TEMPO 2115/2119 5SM -SHRA BR BKN020
     FM211900 29012G18KT 5SM -SHRA BKN020
     FM212200 35013G23KT P6SM BKN025
     FM220000 33012KT P6SM BKN020=


U.S. Dept. of Commerce
NOAA National Weather Service
1325 East West Highway
Silver Spring, MD 20910
E-mail: w-nws.webmaster@noaa.gov
Page last modified: May 16, 2007
NATIONAL WEATHER SERVICE: for Safety, for Work, for Fun - FOR LIFE